GFSMW_850_spd_000.txt.gz
Wind_Speed
27 20 17 15 17 20 17 15 12 12 20 19 18 14 12 6 5 8 11 12 15 19 26 28 25 20 17 17 19 24 28 29 31 33 37 39 37 31 28 31 31 30 20
27 24 22 17 13 14 12 12 12 18 18 15 6 3 4 5 9 12 12 17 20 26 23 19 17 14 15 17 20 22 26 27 30 34 38 30 38 33 23 27 30 29 29
25 22 19 18 17 15 12 9 6 4 2 4 5 7 9 12 13 16 19 19 20 18 17 15 14 16 18 21 22 24 26 31 32 33 27 24 21 29 27 25 28 28 30
22 18 15 12 10 11 8 7 6 4 4 8 14 15 16 17 19 20 15 15 17 16 15 19 22 24 24 24 26 28 30 29 29 26 22 22 25 18 25 23 34 38 39
15 11 8 7 9 8 7 10 11 12 15 17 21 22 21 21 21 18 18 14 12 14 20 26 26 24 23 24 26 26 22 22 21 23 22 25 24 23 28 34 33 36 32
7 2 1 6 7 9 12 12 14 14 16 17 20 19 20 20 18 13 11 13 16 23 26 26 23 20 21 29 27 24 20 18 16 17 20 21 21 28 29 30 39 39 36
9 8 5 2 6 9 9 12 13 15 14 13 13 16 18 15 9 9 15 20 23 20 19 20 17 21 26 30 25 24 26 27 28 26 25 27 28 28 29 28 32 30 32
12 12 8 4 3 6 7 6 8 12 12 15 15 14 10 8 11 26 30 39 24 21 18 16 21 26 26 24 25 23 19 19 20 21 20 21 21 21 22 24 25 25 25
14 17 12 8 5 7 9 10 10 11 11 9 10 15 22 27 28 29 27 19 21 20 16 19 24 27 25 23 23 21 21 21 20 21 23 22 21 21 21 23 27 25 20
18 15 12 10 11 10 10 12 12 11 13 15 19 26 30 32 37 34 30 23 23 19 18 25 26 23 21 21 19 21 20 22 24 26 24 25 24 22 23 26 28 27 27
17 16 13 11 10 12 15 10 10 12 15 19 22 25 29 32 33 28 20 24 22 24 25 23 25 19 18 17 18 21 22 24 26 22 18 20 25 30 33 34 30 26 24
15 12 9 10 12 12 10 10 12 13 17 21 24 23 25 28 32 28 28 32 27 22 17 21 22 19 17 20 21 24 26 26 25 25 27 31 34 37 32 30 30 28 25
9 8 10 12 11 8 9 11 15 18 23 29 31 34 33 29 29 27 28 20 12 13 16 15 15 16 21 21 23 24 24 22 23 27 29 31 34 38 38 35 32 31 26
8 11 12 7 4 8 11 15 19 23 29 30 33 37 37 32 25 23 17 18 32 17 11 15 15 20 20 22 24 24 23 24 25 28 35 34 31 31 28 24 23 23 25
8 8 5 2 6 9 14 17 21 24 27 31 34 33 35 31 29 26 29 26 14 7 5 14 19 18 21 22 23 24 23 27 34 33 27 29 28 28 17 17 17 17 17
5 4 5 1 6 12 15 17 23 27 29 33 32 31 33 34 32 30 26 16 5 4 9 19 18 20 20 23 20 24 30 31 30 30 28 26 28 23 20 21 24 21 20
3 3 1 5 13 16 19 22 26 28 30 29 31 35 37 38 31 25 13 15 6 17 14 17 20 18 19 20 26 29 30 30 29 28 27 26 26 23 21 21 19 20 19
2 5 5 12 17 17 20 22 25 27 30 31 33 33 35 34 25 17 15 9 12 13 17 17 18 17 21 25 28 28 28 28 28 27 27 28 29 22 20 18 19 18 17
7 9 11 16 15 17 18 24 27 28 28 31 32 31 31 28 19 16 16 12 18 13 15 16 16 19 24 28 30 28 27 26 25 27 28 23 20 16 16 17 17 17 16
7 9 13 13 16 18 21 23 18 22 28 31 30 31 30 20 16 13 16 15 9 16 16 14 16 20 25 28 27 26 27 26 27 25 22 19 17 17 18 18 18 23 23
6 7 10 11 15 21 18 16 23 28 30 26 30 33 24 17 13 11 8 11 16 15 12 13 19 24 26 25 24 26 22 21 22 21 19 16 16 18 20 18 19 14 14
6 10 11 16 19 15 20 27 29 26 25 29 33 25 15 13 12 16 18 16 11 9 12 17 21 23 23 23 27 23 16 16 19 19 16 18 19 16 11 11 11 13 14
9 14 19 21 21 21 27 24 27 27 27 31 25 19 14 12 12 11 12 12 10 12 17 20 21 20 21 23 26 23 20 18 17 17 15 17 15 12 13 13 10 9 7
16 21 24 25 26 27 25 24 27 29 32 25 21 18 13 15 14 11 12 11 11 15 18 19 17 18 20 23 25 25 22 19 18 16 15 15 14 12 13 11 9 10 9
21 23 24 26 26 26 27 29 32 31 25 18 18 15 12 13 14 9 10 13 16 18 17 14 15 17 19 23 24 22 20 17 18 15 12 15 17 16 14 10 12 12 11
23 24 25 26 26 29 31 31 26 26 20 17 16 12 12 11 10 12 15 17 18 13 11 13 15 16 17 22 22 21 18 20 17 14 14 16 16 16 15 13 10 11 13

GFSMW_850_spd_006.txt.gz
Wind_Speed
9 5 5 3 5 9 11 13 15 12 6 2 11 10 2 10 14 8 13 14 17 20 19 22 25 25 22 20 20 20 22 24 27 30 31 31 28 25 25 18 20 25 26
22 16 13 11 9 8 9 12 13 13 10 9 4 4 9 9 9 12 15 16 18 18 20 21 22 18 18 22 24 25 24 25 27 27 28 14 21 13 14 25 24 24 28
19 18 17 16 15 16 17 17 16 14 10 8 7 9 8 8 11 14 16 19 19 18 19 18 17 21 30 32 31 28 27 28 26 23 16 10 7 23 22 24 29 24 30
20 20 18 17 15 17 14 12 11 7 5 5 7 9 11 11 13 16 18 18 17 18 20 23 29 34 33 28 23 27 28 28 27 21 17 14 16 14 19 20 30 34 34
19 21 18 14 14 13 10 7 5 4 5 7 9 14 15 14 15 16 18 17 20 26 29 29 29 26 23 25 23 24 25 25 21 21 23 23 20 14 15 26 25 27 31
18 20 15 11 8 8 6 3 1 4 7 9 10 12 12 12 12 14 17 22 24 24 30 29 28 25 18 18 20 22 22 21 19 17 15 15 16 18 17 18 22 25 32
19 18 15 12 8 6 3 1 0 3 4 7 10 9 10 12 14 16 19 23 25 26 26 24 25 18 15 12 14 19 22 18 16 14 14 16 18 18 18 19 22 26 34
17 15 13 12 9 8 7 3 2 6 9 8 8 9 11 14 18 20 23 27 28 27 25 22 23 23 24 27 14 14 17 15 16 16 17 16 16 16 18 20 24 32 29
18 18 15 13 11 8 3 3 8 10 8 10 11 13 18 21 21 24 29 32 32 28 24 19 20 22 22 9 12 15 15 15 15 17 18 20 19 17 18 20 22 26 33
21 19 16 12 8 3 4 9 11 10 10 12 15 20 24 25 27 31 33 32 29 21 19 16 25 18 19 13 10 12 14 16 17 19 21 21 21 21 23 27 29 30 33
23 18 13 9 4 0 4 13 7 6 11 16 20 23 24 28 28 30 33 31 21 17 20 21 25 17 16 8 11 14 15 19 20 24 24 23 23 27 31 34 34 33 32
19 14 9 5 3 2 4 4 4 10 14 19 21 22 26 28 30 32 31 27 18 17 17 18 25 19 10 9 12 17 18 22 24 24 23 27 31 35 34 30 30 30 30
16 11 7 7 6 2 1 5 9 12 15 20 20 24 26 29 31 32 31 25 15 12 19 22 20 8 7 11 15 18 21 25 26 27 29 33 35 34 30 29 29 30 25
12 10 9 10 5 2 13 8 11 14 17 19 20 23 25 30 33 33 29 23 17 20 18 16 12 9 11 15 19 22 24 25 25 29 33 34 32 30 29 29 29 25 27
12 10 9 7 8 13 8 10 14 15 17 20 20 22 26 31 32 31 29 23 18 15 16 12 11 11 15 18 20 23 25 27 31 33 33 32 30 26 25 26 28 29 27
11 11 10 8 12 10 11 14 14 16 19 22 23 22 28 29 29 31 26 18 13 13 13 9 11 16 20 19 20 24 27 30 34 32 32 31 29 28 25 28 23 20 22
12 12 11 8 10 12 13 14 15 18 22 24 21 24 28 27 30 26 21 15 11 13 14 13 16 20 15 18 24 25 29 31 29 29 29 27 24 23 21 19 17 21 20
13 13 10 10 12 13 13 14 17 21 24 22 22 26 24 27 29 24 18 15 13 16 17 16 13 11 19 23 24 28 27 26 26 25 22 22 21 18 17 24 22 20 19
11 9 10 12 13 13 14 17 21 22 20 23 26 24 23 28 27 21 16 16 16 17 15 12 11 22 18 22 26 25 24 24 23 20 19 19 19 17 19 22 23 20 18
14 12 12 14 13 12 15 20 22 21 25 23 23 23 23 26 24 18 15 13 16 15 15 15 15 15 19 22 22 21 22 23 22 20 19 17 18 18 19 19 22 20 20
14 13 14 12 11 15 19 20 23 23 22 23 25 24 23 24 21 18 15 16 17 14 12 12 13 17 20 19 19 19 20 21 22 20 21 18 18 19 18 17 17 18 20
13 12 11 10 13 16 20 22 22 23 25 27 27 26 24 21 18 18 17 17 14 13 11 12 15 17 17 17 17 18 18 18 20 19 19 18 19 21 20 16 14 15 16
12 8 9 12 16 18 20 23 23 26 27 26 25 25 20 17 16 15 15 15 13 11 12 17 18 16 14 15 17 16 17 18 19 19 18 18 20 20 18 14 13 15 15
8 10 12 16 17 19 20 22 25 27 27 25 23 20 16 15 15 12 13 11 9 13 18 18 16 12 12 13 16 16 16 18 19 19 17 16 17 18 17 16 13 13 13
10 11 14 17 18 20 22 24 26 28 25 23 22 18 17 18 19 12 9 9 12 17 18 14 12 11 11 11 14 15 16 17 18 17 17 15 16 18 19 18 16 14 12
10 12 14 17 19 22 24 26 26 22 23 23 19 19 17 15 18 12 12 12 14 19 14 12 12 11 11 11 12 13 14 16 17 16 16 16 17 18 19 20 19 17 13

GFSMW_850_spd_009.txt.gz
Wind_Speed
8 6 6 5 4 4 3 5 4 3 3 6 9 10 8 5 10 9 9 10 12 14 16 15 19 20 20 20 20 22 24 26 27 25 21 23 21 18 18 23 20 21 24
12 10 10 12 12 10 12 16 15 14 13 12 8 5 6 4 5 8 11 12 13 14 15 17 17 19 23 26 27 25 22 22 26 22 16 15 14 14 16 15 21 26 29
25 24 22 22 23 23 20 19 18 16 13 10 6 2 1 4 8 11 12 14 15 15 17 18 21 25 26 24 20 18 18 16 22 23 11 10 11 18 13 17 17 20 24
22 23 24 25 23 21 19 18 17 13 9 5 1 2 5 7 10 12 13 12 14 18 21 24 26 25 24 20 19 19 19 18 14 15 10 14 15 17 20 17 20 20 22
23 22 20 19 20 20 17 14 10 7 4 1 3 5 6 7 7 8 10 14 19 22 25 27 30 29 23 20 19 18 13 16 19 18 15 12 12 12 14 23 21 21 19
21 21 20 19 18 16 14 11 8 6 3 2 3 6 6 6 8 11 15 20 24 27 29 31 29 26 25 23 20 19 22 19 19 15 10 9 11 13 14 17 21 25 23
21 18 17 16 15 15 12 9 6 2 2 5 9 10 11 12 15 19 24 26 29 31 32 28 25 24 23 18 17 20 14 12 13 13 10 12 12 13 14 15 20 24 28
20 16 14 14 15 14 12 9 4 2 5 8 11 12 10 14 18 21 24 27 30 31 29 26 23 21 20 17 24 14 10 12 12 14 13 14 15 19 19 18 19 28 31
20 17 16 16 15 13 10 5 6 7 7 9 9 12 17 20 22 25 27 29 29 28 24 20 17 18 18 25 13 9 9 11 14 16 16 20 20 20 21 22 20 21 33
20 20 19 16 13 11 8 6 6 8 10 10 13 18 21 24 25 26 28 29 29 26 20 17 19 14 20 15 7 7 9 13 15 18 20 21 22 22 23 23 25 23 26
24 23 18 15 12 9 5 6 9 13 10 11 16 19 23 24 24 27 29 28 26 21 14 16 16 20 20 13 10 9 11 14 17 20 22 23 23 22 21 21 22 22 22
25 21 17 14 11 6 3 7 10 10 10 12 17 19 22 22 25 28 29 27 25 17 12 15 18 21 23 13 10 11 13 17 21 21 21 23 25 24 23 23 23 23 23
24 21 17 14 10 5 3 8 10 8 10 14 16 18 18 21 25 29 29 28 26 22 15 16 24 21 13 10 13 15 17 22 21 22 25 29 30 26 25 25 25 22 21
24 20 17 13 10 5 9 15 5 7 11 15 18 18 18 21 27 29 30 29 26 21 17 17 18 15 13 12 14 18 20 24 24 26 30 33 30 24 24 24 23 22 21
24 20 16 14 12 8 12 5 6 10 14 18 19 20 20 23 28 29 30 27 22 17 15 15 13 8 11 15 18 18 22 25 27 31 32 30 29 28 24 20 21 22 22
23 19 17 14 13 8 8 8 9 12 17 19 22 22 21 25 29 28 29 24 19 14 13 13 14 12 12 19 19 20 24 27 31 30 29 29 26 20 21 20 16 15 18
23 20 17 14 9 7 10 10 12 16 19 22 23 22 23 28 26 27 26 22 18 15 15 17 16 19 18 12 21 22 26 29 28 27 26 24 19 17 16 17 20 20 20
23 19 15 12 9 11 13 13 16 18 22 23 22 23 26 25 25 27 23 19 17 17 17 19 16 12 13 20 20 25 27 24 24 24 22 20 17 15 17 20 20 18 18
19 14 13 12 12 13 14 15 16 20 21 23 25 25 24 24 23 26 21 18 14 15 15 15 14 14 15 18 23 25 23 21 22 21 18 18 16 16 17 19 20 19 19
18 16 15 13 13 13 12 13 17 20 22 22 22 23 24 24 24 25 20 16 16 17 17 15 14 15 15 20 23 22 20 20 20 19 19 19 17 16 19 18 18 18 18
17 16 11 12 10 10 12 16 19 19 20 21 23 24 24 25 25 23 17 16 16 17 15 14 14 15 19 21 20 19 18 18 19 19 19 18 18 18 19 18 14 15 20
18 14 14 7 11 11 14 16 17 19 20 22 24 25 24 24 19 16 15 14 15 14 14 13 14 18 20 19 18 17 16 16 17 18 18 17 19 20 19 18 17 16 17
16 14 2 11 10 12 14 16 17 19 22 24 26 24 23 19 14 14 14 13 14 12 11 13 19 20 19 17 16 16 16 15 16 17 18 17 17 19 19 19 17 16 15
15 7 11 9 9 11 13 16 18 21 24 26 24 23 22 18 15 14 14 15 11 9 12 17 19 17 15 15 15 16 16 16 15 16 16 16 16 16 17 18 17 16 14
8 11 10 9 9 11 13 15 19 22 22 21 22 21 17 18 17 16 15 13 11 12 14 17 15 14 15 14 14 15 15 16 17 17 16 16 16 17 17 17 17 17 14
10 10 9 8 10 12 14 17 20 21 18 19 19 17 19 17 14 16 14 15 14 15 16 17 15 14 15 15 14 14 14 15 16 17 17 16 16 16 17 17 17 17 16

GFSMW_850_spd_012.txt.gz
Wind_Speed
7 7 9 9 9 8 9 10 8 8 8 8 10 9 8 7 4 5 4 7 9 10 11 8 10 12 12 16 19 19 20 20 19 21 23 23 22 16 15 16 16 16 16
10 9 10 10 11 12 12 13 13 15 13 11 10 8 7 5 4 5 7 9 11 11 12 15 13 14 16 17 17 17 17 17 17 18 22 23 21 19 13 17 19 19 21
13 15 14 14 15 17 18 17 17 16 13 11 8 6 4 3 2 5 4 9 12 12 14 17 20 20 18 19 16 14 13 15 16 15 18 20 19 22 22 18 21 20 22
17 16 17 18 18 18 17 17 15 13 14 12 8 7 3 2 4 4 4 6 14 18 21 20 25 23 20 17 14 12 12 11 16 18 17 17 17 21 25 23 23 23 22
17 18 17 17 16 19 17 17 16 14 12 9 5 3 1 1 2 4 8 12 14 16 18 18 19 20 18 15 13 11 10 12 15 19 17 17 15 16 18 23 23 23 21
19 17 16 15 15 14 16 14 13 12 9 5 3 1 4 4 5 9 12 14 17 18 19 20 20 18 15 12 10 9 11 13 13 11 10 12 13 16 17 20 23 24 24
20 18 18 16 15 14 14 13 11 10 7 3 4 6 8 11 9 13 14 18 18 19 20 22 19 16 13 11 10 9 18 10 9 10 11 12 13 15 17 20 24 26 28
20 18 17 15 15 15 14 13 10 8 5 5 7 10 10 10 10 13 16 15 17 19 21 19 16 12 10 10 17 11 11 10 10 11 13 15 16 17 18 20 23 29 33
21 18 17 16 16 17 15 13 10 7 5 6 9 10 12 16 17 16 17 17 19 19 19 17 12 9 11 11 11 13 12 10 11 13 14 16 18 19 19 20 21 25 34
21 19 17 17 16 16 15 10 9 5 7 9 7 9 12 16 18 19 19 21 22 20 18 15 13 13 16 10 14 15 11 11 12 14 16 18 19 20 20 21 23 26 30
23 20 18 17 17 16 13 8 4 4 6 2 5 8 13 18 20 16 17 20 22 19 17 15 14 17 14 17 20 15 13 13 14 16 19 20 20 21 23 24 26 28 29
22 21 20 20 19 18 14 11 2 3 2 6 6 11 16 18 13 13 17 19 19 18 17 14 14 16 19 22 18 11 14 16 18 19 20 21 22 24 25 26 27 28 29
23 22 22 22 20 18 15 7 4 9 7 6 8 11 12 12 12 14 17 18 18 18 15 15 16 18 18 16 13 13 15 16 17 17 19 21 24 26 25 25 26 27 26
25 23 23 22 20 18 13 9 13 7 7 8 8 9 12 13 13 15 17 18 18 16 14 14 14 15 14 12 10 11 12 11 15 18 20 22 22 21 22 23 22 22 22
25 26 25 23 21 20 16 8 10 10 10 11 10 11 13 14 14 15 17 19 18 15 14 12 11 10 10 10 10 10 11 15 18 19 19 18 21 29 23 18 18 19 20
26 26 24 23 22 21 13 11 12 10 12 13 13 14 17 17 16 17 18 18 17 15 14 14 12 10 9 19 21 19 17 16 18 18 17 17 18 15 20 20 20 17 20
26 26 24 22 20 18 13 12 12 13 14 15 17 20 20 17 17 17 16 18 16 15 15 15 12 12 9 13 12 18 18 18 16 15 16 16 15 18 16 17 19 21 20
24 24 21 19 17 15 12 13 15 15 16 17 20 19 15 16 16 16 17 18 16 14 13 12 11 9 11 13 16 18 21 16 14 14 15 15 15 16 19 17 20 19 19
21 21 18 17 17 14 14 15 16 15 17 19 17 15 16 15 16 16 17 17 16 13 13 12 9 10 10 16 17 21 21 17 16 14 13 15 14 16 17 18 19 19 18
20 19 19 20 18 17 11 17 14 15 17 18 17 17 15 16 16 16 17 16 13 12 11 11 13 15 15 16 19 21 19 16 15 13 13 16 19 20 18 17 17 18 18
20 20 20 18 15 10 16 14 14 14 16 16 16 16 16 15 16 16 15 13 12 12 13 14 15 15 15 18 20 20 17 15 15 13 13 13 19 19 19 19 14 18 20
18 17 18 17 12 11 14 11 11 14 14 15 17 17 16 16 15 13 11 11 12 11 14 14 14 13 18 19 19 16 15 16 16 15 14 17 19 18 18 17 18 18 16
18 21 19 14 10 12 12 12 11 13 15 17 17 15 14 13 12 11 11 12 12 11 10 10 10 12 15 12 14 14 15 15 15 15 16 16 16 17 16 17 17 16 13
15 14 14 7 7 10 12 13 13 14 16 17 15 14 16 17 12 10 12 13 13 12 10 10 12 13 13 12 11 10 10 13 12 14 16 16 15 16 17 14 13 13 14
18 13 5 5 9 11 11 11 13 15 16 15 14 13 15 14 14 12 11 13 13 13 12 11 11 13 12 12 14 13 11 11 12 17 13 12 12 12 11 11 12 11 13
11 7 4 9 11 11 11 12 14 15 14 15 14 11 12 12 13 12 13 13 13 18 19 18 17 16 15 15 14 14 14 15 15 15 11 12 12 12 11 11 11 11 12